CAPE
0 0 0 0 0 0 0 0 0 0 0 0 0 0 0 0 0 0 0 0 0 0 0 0 0 0 0 0 0 0 0 0 0 0 0 2 2 2 2 2 4 0 0 0
0 0 0 0 0 0 0 0 0 0 0 0 0 0 0 0 0 0 0 0 0 0 0 0 0 0 0 0 0 0 0 2 0 1 1 0 5 7 4 0 0 0 0 2
0 0 0 0 0 0 0 0 0 0 0 0 0 0 0 0 0 0 0 0 0 0 0 0 0 0 0 0 0 1 2 1 0 2 1 3 6 10 6 0 0 1 0 0
0 0 0 0 0 0 0 0 0 0 0 0 0 0 0 0 0 0 0 0 0 0 0 0 0 0 0 0 0 0 0 0 7 4 3 4 7 8 10 16 1 4 0 0
0 0 0 0 0 0 0 0 0 0 0 0 0 0 0 0 0 0 0 0 0 0 0 0 0 0 0 0 0 0 0 3 6 5 6 9 8 15 17 20 21 3 1 2
0 0 0 0 0 0 0 0 0 0 0 0 0 0 0 0 0 0 0 0 0 0 0 0 0 0 0 0 0 0 2 6 8 7 10 13 9 14 10 16 14 8 9 1
0 0 0 0 0 0 0 0 0 0 0 0 0 0 0 0 0 0 0 0 0 0 0 0 0 0 2 0 0 4 6 5 3 2 3 11 15 11 9 23 18 13 9 22
0 0 0 0 0 0 0 0 0 0 0 0 0 0 0 0 0 0 0 0 0 0 0 0 0 0 1 2 6 5 4 1 6 12 11 10 13 11 11 12 11 15 8 7
0 0 0 0 0 0 0 0 0 0 0 0 0 0 0 0 0 0 0 0 0 0 0 0 0 0 0 0 5 6 8 8 6 13 10 13 12 11 14 11 9 10 9 12
0 0 0 0 0 0 0 0 0 0 11 0 0 0 0 3 1 0 0 0 0 0 0 0 0 0 1 0 0 1 2 3 5 10 7 10 13 12 13 12 7 5 7 8
0 0 0 0 0 0 0 0 0 0 0 7 0 0 0 0 0 0 0 0 0 0 0 0 0 0 0 0 0 0 1 1 1 3 3 1 13 9 9 12 7 4 3 7
0 0 0 0 0 3 0 0 0 0 0 0 0 0 0 0 0 0 0 0 0 0 0 0 0 0 0 0 0 0 1 3 2 1 0 1 0 4 5 3 9 4 2 6
0 0 0 0 0 0 0 0 0 0 0 0 3 0 0 0 0 0 0 0 0 0 0 0 0 0 0 0 0 0 0 0 0 3 2 3 5 5 3 3 2 8 4 3
9 2 0 0 1 0 0 0 0 1 0 0 0 0 4 2 1 0 0 0 0 0 0 0 0 0 0 0 0 0 0 0 0 1 3 1 5 8 13 6 7 4 4 6
1 11 0 0 0 5 0 0 0 0 0 0 0 0 0 0 0 0 0 0 0 0 0 0 0 0 0 0 0 0 0 0 0 0 1 3 7 10 12 9 6 5 4 4
0 1 0 0 0 16 1 0 0 0 0 0 0 0 0 0 0 0 0 0 0 0 0 0 0 0 0 0 0 0 0 0 0 0 0 0 0 4 5 5 5 3 1 0
2 2 0 9 0 20 3 0 0 0 0 0 0 0 0 0 0 0 0 0 0 0 0 0 0 0 0 0 0 0 0 0 0 0 0 0 0 0 0 1 1 2 0 0
1 2 6 8 2 15 0 0 0 0 0 0 0 0 0 0 0 0 0 0 0 0 0 0 0 0 0 0 0 0 0 0 0 0 0 0 0 0 0 0 0 0 0 0
7 4 1 15 3 0 0 0 0 0 0 0 0 0 0 0 0 0 0 0 0 0 0 0 0 0 0 0 0 0 0 0 0 0 0 0 0 0 0 0 0 0 0 0
15 20 1 4 7 2 0 0 0 0 0 0 0 0 0 0 0 0 0 0 0 0 0 0 0 0 0 0 0 0 0 0 0 0 0 0 0 0 0 0 0 0 0 0
31 35 2 0 0 0 0 0 0 0 0 0 0 0 0 0 0 0 0 0 0 0 0 0 0 0 0 0 0 0 0 0 0 0 0 1 0 0 0 0 0 0 0 0
2 4 0 0 0 0 0 0 0 0 0 0 0 0 0 0 0 0 0 0 0 0 0 0 0 0 0 0 0 0 0 0 0 0 0 0 0 0 0 0 0 0 0 0
11 0 0 0 0 0 0 0 0 0 0 0 0 0 0 0 0 0 0 0 0 0 0 0 0 0 0 0 0 0 0 0 0 0 0 0 0 0 0 0 0 0 0 0
0 0 0 0 0 0 0 0 0 0 0 0 0 0 0 0 0 0 0 0 0 0 0 0 0 0 0 0 0 0 0 0 0 0 0 0 0 0 0 0 0 0 0 0
0 0 0 0 0 0 0 0 0 0 0 0 0 0 0 0 0 0 0 0 0 0 0 0 0 0 0 0 0 0 0 0 0 0 0 0 0 0 0 0 0 0 0 0
0 0 0 0 0 0 0 0 0 0 0 0 0 0 0 0 0 0 0 0 0 0 0 0 0 0 0 0 0 0 0 0 0 0 0 0 0 0 0 0 0 0 0 5
CIN
0 0 0 0 0 0 0 0 0 0 0 0 0 0 0 0 0 0 0 0 0 0 0 0 0 0 0 0 0 0 0 -0 -0 0 -0 0 0 -0 -0 -2 -1 0 0 0
0 0 0 0 0 0 0 0 0 0 0 0 0 0 0 0 0 0 0 0 0 0 0 0 0 0 0 0 0 0 0 0 -0 0 0 -0 0 0 0 -0 -1 -1 0 -1
0 0 0 0 0 0 0 0 0 0 0 0 0 0 0 0 0 0 0 0 0 0 0 0 0 0 0 0 0 0 0 0 0 0 0 0 0 0 0 -0 -0 -0 0 0
0 0 0 0 0 0 0 0 0 0 0 0 0 0 0 0 0 0 0 0 0 0 0 0 0 0 0 0 0 0 -0 0 0 0 0 0 0 0 0 0 -0 -0 0 0
0 0 0 0 0 0 0 0 0 0 0 0 0 0 0 0 0 0 0 0 0 0 0 0 0 0 0 -0 -0 0 0 -0 0 0 0 0 0 0 -0 0 0 -0 -0 -0
0 0 0 0 0 0 0 0 0 0 0 0 0 0 0 0 0 0 0 0 0 0 0 0 0 0 0 0 0 0 0 0 0 0 0 0 0 0 0 -0 0 -0 -1 -0
0 0 0 0 0 0 0 0 0 0 0 0 0 0 0 0 0 0 0 0 0 0 0 0 0 0 0 0 -0 -0 0 0 0 0 0 0 0 0 0 0 0 0 0 0
0 0 0 0 0 0 0 0 0 0 0 0 0 0 0 0 0 0 0 0 0 0 0 0 0 0 0 0 0 -0 0 -0 0 0 -0 0 0 0 0 0 0 0 0 0
0 0 0 0 0 0 0 0 0 0 0 0 0 0 0 0 0 0 0 0 0 0 0 0 0 0 0 -0 0 -0 0 0 0 0 0 0 0 0 0 0 0 0 0 0
0 0 0 0 0 0 0 0 0 0 -3 -1 0 0 0 0 0 0 0 0 0 0 0 0 0 0 -0 0 0 -0 -0 -0 0 0 0 0 -0 0 0 0 0 0 0 0
0 0 0 0 0 0 0 0 0 -7 0 -5 0 0 0 0 0 0 0 0 0 0 0 0 0 0 0 0 0 -0 -0 -0 -0 0 0 0 0 0 0 0 0 0 0 0
0 0 0 0 0 -2 -3 -28 0 0 0 0 0 0 0 0 0 0 0 0 0 0 0 0 0 0 0 0 0 0 -0 -0 0 0 0 0 0 0 0 0 0 0 0 0
-5 0 0 0 0 0 -2 0 0 0 0 0 -11 0 0 0 0 0 0 0 0 0 0 0 0 0 0 0 0 0 0 0 0 -0 -0 -0 -0 -0 0 0 0 0 0 -0
-81 -20 0 0 -6 0 -1 0 0 -0 0 0 0 0 0 0 0 0 0 0 0 0 0 0 0 0 0 0 0 0 0 0 0 -1 -0 -0 -0 0 0 0 0 0 0 0
-54 -15 -7 -0 0 -0 -0 0 0 0 0 0 0 0 0 0 0 -0 0 0 0 0 0 0 0 0 0 0 0 0 0 0 0 0 -0 -0 -0 0 -0 0 0 0 0 0
0 0 0 0 0 -20 -0 0 0 0 0 0 0 0 0 0 0 0 0 0 0 0 0 0 0 0 0 0 0 0 0 0 0 0 0 0 0 0 0 0 0 0 0 0
-6 0 0 -1 -14 -13 -1 0 0 0 0 0 0 0 0 0 0 0 0 0 0 0 0 0 0 0 0 0 0 0 0 0 0 0 0 0 0 0 0 0 0 0 0 0
-2 0 -2 -2 -11 -2 0 0 0 0 0 0 0 0 0 0 0 0 0 0 0 0 0 0 0 0 0 0 0 0 0 0 0 0 0 0 0 0 0 0 0 0 0 0
-8 -2 -8 -4 -7 0 0 0 0 0 0 0 0 0 0 0 0 0 0 0 0 0 0 0 0 0 0 0 0 0 0 0 -0 0 0 0 0 0 0 0 0 0 0 0
-18 -15 -3 0 -1 -2 0 0 0 0 0 0 0 0 0 0 0 0 0 0 0 0 0 0 0 0 0 0 0 0 0 0 0 -0 0 0 0 0 0 0 0 0 0 0
-4 -1 0 -0 -0 0 0 0 0 0 0 0 0 0 0 0 0 0 0 0 0 0 0 0 0 0 0 0 0 0 0 0 0 0 0 -0 0 0 0 0 0 0 0 0
-51 -18 0 0 0 0 0 0 0 0 0 0 0 0 0 0 0 0 0 0 0 0 0 0 0 0 0 0 0 0 0 0 0 0 0 0 0 0 0 0 0 0 0 0
-17 0 0 0 0 0 0 0 0 0 0 0 0 0 0 0 0 0 0 0 0 0 0 0 0 0 0 0 0 0 0 0 0 0 0 0 0 0 0 0 0 0 0 0
0 0 0 0 0 0 0 0 0 0 0 0 0 0 0 0 0 0 0 0 0 0 0 0 0 0 0 0 0 0 0 0 0 0 0 0 0 0 0 0 0 0 0 0
0 0 0 0 0 0 0 0 0 0 0 0 0 0 0 0 0 0 0 0 0 0 0 0 0 0 0 0 0 0 0 0 0 0 0 0 0 0 0 0 0 0 0 0
0 0 0 0 0 0 0 0 0 0 0 0 0 0 0 0 0 0 0 0 0 0 0 0 0 0 0 0 0 0 0 0 0 0 0 0 0 0 0 0 0 -0 -1 -0
Wind_Speed
1 4 6 10 7 2 2 2 5 5 4 2 1 6 3 4 8 8 8 8 8 10 9 11 13 13 14 13 16 16 15 16 15 13 13 12 13 13 12 9 11 14 12 11
1 7 14 5 7 7 6 5 6 6 4 4 5 3 2 3 4 4 5 7 9 12 14 16 17 17 16 17 18 18 19 18 15 12 12 13 12 12 12 13 12 14 13 11
8 6 1 6 4 7 9 6 5 7 2 2 6 3 5 3 6 4 3 2 5 11 15 16 17 16 16 16 16 17 18 19 17 18 13 11 11 10 11 11 12 11 13 9
8 10 14 14 8 7 10 8 7 4 4 5 3 9 4 6 5 2 3 5 7 10 10 11 16 18 18 19 17 18 20 19 16 18 15 16 13 13 11 13 13 12 14 14
9 2 1 4 6 10 9 7 9 6 5 3 3 2 1 8 6 2 3 6 7 7 9 12 14 15 16 17 18 18 19 18 17 17 16 13 14 12 12 11 15 17 15 15
6 2 4 7 4 1 1 4 3 5 3 6 8 9 5 6 4 4 2 4 7 8 11 11 11 12 13 15 17 17 17 17 18 18 18 16 16 16 13 12 11 10 11 11
10 15 13 9 8 3 4 5 1 3 1 8 6 6 4 5 4 5 4 4 6 6 9 11 13 13 14 17 17 15 17 18 19 20 18 18 16 16 16 14 10 11 9 8
5 7 5 3 17 10 8 8 6 6 5 4 2 6 5 3 7 7 6 5 4 6 7 9 11 11 14 15 16 17 18 19 19 18 17 15 16 10 10 11 11 9 8 7
3 6 3 4 6 12 5 9 8 6 2 1 3 4 3 7 6 4 5 5 4 5 6 8 10 10 13 13 15 16 17 17 18 18 16 16 16 16 14 15 12 11 12 9
4 7 5 9 4 6 8 6 4 2 4 5 4 4 6 12 10 6 2 3 3 3 5 7 9 9 11 11 12 15 15 15 16 17 14 13 13 16 15 15 18 17 15 14
5 4 5 8 4 3 1 3 3 2 4 4 1 7 3 11 9 8 4 4 1 3 4 6 8 9 8 9 10 12 14 15 16 16 15 13 14 16 17 16 18 18 15 14
9 4 3 13 15 1 6 3 6 3 5 2 5 7 3 5 7 8 6 5 3 3 4 5 7 7 7 8 10 11 13 13 14 14 15 14 15 17 18 20 20 19 16 15
8 3 6 6 5 3 7 8 4 7 2 6 5 6 4 6 6 6 7 6 4 4 5 5 7 7 7 8 7 9 11 13 13 14 15 18 17 18 20 20 20 16 17 15
7 4 5 7 3 2 3 6 5 8 4 3 6 3 9 10 9 7 6 7 4 1 1 3 5 6 7 7 7 10 11 12 13 14 16 18 19 19 17 16 17 20 17 17
4 5 3 3 9 4 2 3 5 6 3 5 4 6 7 15 13 11 10 7 5 3 2 3 4 6 6 7 8 9 11 12 12 13 14 15 14 13 14 16 15 14 16 18
5 3 2 5 7 5 4 8 10 9 3 7 1 7 4 8 11 9 10 8 6 4 3 2 4 6 6 7 7 8 9 11 11 13 14 12 12 14 15 15 16 15 16 18
2 4 4 3 4 4 6 14 13 4 5 6 7 4 9 7 12 12 11 9 7 5 3 2 4 4 5 5 5 8 9 9 11 12 13 13 13 13 15 15 15 17 18 18
8 6 6 2 3 6 4 2 4 12 4 5 3 6 10 9 6 6 6 9 8 8 5 3 3 3 5 4 6 6 7 8 10 12 13 13 13 14 14 15 16 16 15 18
10 9 3 3 5 4 2 4 5 6 6 9 7 9 9 10 6 1 6 6 6 6 6 4 4 2 3 5 6 6 7 7 8 11 12 12 12 13 14 15 15 14 13 14
8 6 5 2 4 5 3 3 6 4 5 6 10 14 15 11 5 5 11 8 7 5 6 6 6 5 7 5 6 7 7 7 8 7 8 10 11 12 12 12 13 11 12 13
4 3 10 8 3 5 4 5 4 3 6 6 11 15 16 7 3 5 14 9 5 7 9 7 7 6 5 5 6 6 6 6 6 7 7 7 8 9 9 9 8 9 10 11
8 7 3 3 2 6 4 4 6 3 3 6 8 12 13 6 8 13 14 11 10 11 9 8 8 6 5 5 6 6 6 5 6 7 7 7 6 8 7 6 7 7 7 9
2 5 5 5 5 1 2 1 2 3 6 6 9 10 10 12 9 13 12 11 12 11 9 8 8 7 5 6 6 6 5 5 6 6 6 4 5 5 5 6 6 6 8 9
1 2 4 3 2 3 1 3 3 2 4 6 7 14 14 11 13 12 10 10 11 10 9 8 9 7 6 5 7 5 6 5 5 5 4 5 5 7 7 6 4 4 4 7
3 4 5 1 2 2 5 2 5 6 7 10 10 11 12 15 13 13 10 10 10 10 9 8 8 8 7 5 5 5 5 3 5 5 6 6 6 6 5 5 4 5 1 3
4 6 4 5 6 4 3 8 8 8 7 8 13 9 11 13 14 12 10 10 10 10 9 8 8 9 7 6 5 4 3 4 4 6 5 4 3 4 4 4 4 13 11 14
Wind_Direction
201 107 210 214 211 255 4 266 266 269 261 256 316 141 127 50 52 37 26 14 7 1 343 359 358 356 353 355 353 350 343 342 337 330 328 325 318 313 305 293 289 293 284 280
351 229 233 159 185 234 263 255 243 282 264 175 151 135 83 89 73 69 31 11 358 351 1 357 354 355 357 351 351 347 344 338 336 326 319 311 306 298 298 296 285 282 277 273
199 232 57 201 240 218 234 218 224 218 277 292 106 258 195 100 118 97 86 38 357 2 357 350 350 350 351 349 348 340 337 335 335 327 318 310 302 298 298 295 293 284 279 268
243 239 248 261 260 191 242 208 209 204 133 235 143 275 204 165 152 93 66 18 5 5 356 347 350 350 348 347 342 338 336 336 329 326 320 314 305 301 297 293 289 285 277 270
233 218 199 227 236 230 245 180 177 179 191 132 227 299 65 141 193 145 44 29 6 356 353 353 353 347 343 341 344 336 334 334 329 331 325 317 308 300 298 292 294 294 290 272
223 254 195 218 267 62 223 97 55 38 112 257 188 187 236 189 179 145 78 42 12 6 355 351 348 342 342 345 341 336 336 336 337 336 331 323 309 313 304 299 296 294 292 284
261 261 265 239 267 190 154 123 278 306 345 241 208 203 263 168 139 133 110 46 21 12 351 351 346 343 345 345 343 341 343 342 343 343 339 332 329 323 321 323 317 317 314 326
184 310 186 221 211 194 188 178 177 221 215 255 221 239 274 112 132 133 123 90 38 17 355 350 336 337 342 341 343 347 349 346 344 338 340 339 338 333 326 347 340 328 335 343
192 255 259 299 254 198 204 205 191 231 257 130 230 299 223 163 168 147 110 68 35 27 354 339 335 341 345 346 347 349 345 344 346 341 337 351 357 352 352 4 360 2 350 342
230 287 263 301 261 217 172 174 108 355 219 226 271 269 245 204 201 179 134 102 23 39 1 349 340 332 341 345 343 350 348 347 342 347 345 348 359 8 11 14 12 8 1 348
152 146 266 0 343 296 146 151 48 355 149 183 237 257 267 200 170 165 158 119 47 21 2 349 324 317 322 328 348 353 354 349 349 352 350 346 9 18 21 21 19 12 2 356
196 169 198 246 259 167 338 290 117 213 220 187 157 267 5 115 134 142 151 136 89 62 3 335 307 320 331 333 350 358 0 354 354 351 358 358 14 24 29 26 21 11 11 11
174 234 267 319 326 248 191 272 310 221 138 211 177 258 128 136 135 140 142 139 104 42 6 323 322 352 338 336 338 356 360 1 0 1 8 9 12 25 27 27 20 12 19 20
119 162 184 208 205 304 295 214 220 255 198 179 225 199 191 195 178 162 146 131 122 69 325 308 332 359 338 327 350 6 10 7 8 10 16 15 9 21 26 24 20 20 19 25
153 181 151 226 287 261 274 210 229 228 191 178 223 210 209 200 183 173 150 137 157 130 101 21 10 13 342 354 5 7 18 16 12 19 23 20 14 14 28 35 28 30 30 31
359 88 257 228 213 220 259 254 232 231 217 257 259 264 223 125 137 145 148 162 161 141 109 83 43 25 356 4 7 8 19 23 15 24 27 22 23 21 22 30 33 30 38 43
110 154 200 248 202 201 252 226 217 215 222 157 208 204 149 149 157 163 159 161 156 137 140 118 71 29 358 4 4 18 17 23 28 28 29 25 23 31 34 30 30 33 33 36
189 217 227 181 128 237 247 188 211 225 222 182 115 165 166 151 122 137 154 152 150 158 151 122 77 43 351 10 19 21 23 28 34 33 34 27 28 33 35 39 37 34 33 39
196 214 238 205 204 296 265 201 181 180 266 192 155 125 112 116 91 109 154 133 143 168 153 130 114 107 45 43 35 35 31 32 41 39 35 31 30 36 34 34 32 36 38 40
205 190 202 172 227 223 240 199 148 124 295 143 138 150 147 147 165 224 162 136 142 155 136 123 115 93 66 26 55 51 39 29 43 46 48 39 35 38 35 28 30 29 39 41
168 190 213 206 253 281 206 142 112 114 247 153 156 157 159 177 161 149 139 132 134 139 126 114 97 90 77 51 68 57 53 31 30 44 43 39 46 44 32 34 31 30 30 30
173 167 183 148 162 261 137 87 185 186 54 138 144 159 160 111 116 138 135 132 140 135 129 117 101 85 59 47 73 60 51 44 41 43 45 36 33 45 39 24 23 28 37 43
190 175 184 175 208 258 304 299 80 130 139 158 144 157 136 131 142 148 143 147 150 142 133 123 114 98 66 58 50 61 20 41 49 47 36 29 37 36 42 42 42 39 36 41
33 117 102 101 261 200 242 77 68 87 126 137 141 150 145 142 147 146 145 149 148 142 140 136 125 108 86 59 64 58 43 37 54 54 44 46 43 39 32 23 38 39 28 39
199 108 130 349 308 347 267 156 140 93 92 99 116 145 148 142 151 148 147 146 147 146 145 142 133 126 115 94 71 47 46 48 86 68 52 35 37 32 31 33 20 36 213 65
184 163 157 220 196 157 213 145 134 126 122 129 131 124 140 145 148 145 141 147 147 146 139 133 132 128 126 116 95 61 37 77 89 77 49 27 20 33 39 19 20 34 49 53